Terminal Aerodrome Forecast
Issued by NWS Miami, FL

Home | Current Version | Previous Version | Text Only | Print | Product List | Glossary On
Versions: 1 2 3 4 5 6 7 8 9 10 11 12 13 14 15 16 17 18 19 20 21 22 23 24 25 26 27 28 29 30 31 32 33 34 35 36 37 38 39 40 41 42 43 44 45 46 47
000
FTUS42 KMFL 230524
TAFPBI
TAF
KPBI 230524Z 2306/2406 16005KT P6SM FEW010
     FM230800 VRB02KT P6SM SCT010
      TEMPO 2309/2312 BKN010
     FM231400 15013KT P6SM SCT025 BKN050
     FM240000 14008KT P6SM FEW025 SCT050=

USA.gov is the U.S. government's official web portal to all federal, state and local government web resources and services.